Location: L�beck
(53.8752°N, 10.6787°E)
Time: 10:30:41
(UTC+02:00)

ISS - Pass Details

Date: 06 January 2018
Orbit: 402 x 409 km, 51.6° (Epoch: 21 August)

Event Time Altitude Azimuth Distance (km) Brightness Sun altitude
Exits shadow 06:47:04 26° 256° (WSW) 877 -2.6 -14.6°
Maximum altitude 06:48:43 55° 188° (S) 516 -3.3 -14.4°
Drops below altitude 10° 06:52:04 10° 110° (ESE) 1,518 0.5 -13.9°
Sets 06:54:12 0° 106° (ESE) 2,385 2.1 -13.6°
